Regional Weather Roundup
Issued by NWS Sioux Falls, SD

Home | Current Version | Previous Version | Graphics & Text | Print | Product List | Glossary On
Versions: 1 2 3 4 5 6 7 8 9 10 11 12 13 14 15 16 17 18 19 20 21 22 23 24 25 26 27 28 29 30 31 32 33 34 35 36 37 38 39 40 41 42 43 44 45 46 47 48 49 50
000
ASUS43 KFSD 020510
RWRFSD

WEATHER ROUNDUP FOR SE SOUTH DAKOTA/SW MINNESOTA/NW IOWA
NATIONAL WEATHER SERVICE SIOUX FALLS SD
1100 PM CST SUN MAR 01 2015

NOTE: "FAIR" INDICATES FEW OR NO CLOUDS BELOW 12,000 FEET WITH NO
SIGNIFICANT WEATHER AND OR OBSTRUCTIONS TO VISIBILITY.


SDZ038>040-050-052>070-020600-
SOUTHEAST SOUTH DAKOTA

CITY           SKY/WX    TMP DP  RH WIND       PRES   REMARKS
CHAMBERLAIN    CLEAR     14   9  81 CALM      30.42S
HURON          CLEAR      9   6  88 CALM      30.45R
MADISON        FAIR      10  10 100 W5        30.41S WCI   2
MITCHELL       PTCLDY    14  11  87 CALM      30.46R
SIOUX FALLS    CLEAR     15  11  83 NW6       30.43R WCI   6
WINNER         FAIR      20   4  50 S5        30.39S WCI  13
YANKTON        CLEAR     18  10  73 CALM      30.47R
$$

MNZ071-072-080-081-089-090-097-098-020600-
SOUTHWEST MINNESOTA

CITY           SKY/WX    TMP DP  RH WIND       PRES   REMARKS
FAIRMONT       CLEAR     19  10  68 NW12      30.40R WCI   7
JACKSON        CLEAR     19  12  73 NW10      30.41R WCI   8
LUVERNE        CLEAR     16  12  86 W7        30.43S WCI   6
MARSHALL       CLEAR     12   5  73 NW9       30.44R WCI   0
MONTEVIDEO     CLEAR     14  10  85 NW6       30.44R WCI   5
PIPESTONE      CLEAR      9   7  92 CALM      30.41R
REDWOOD FALLS  CLEAR     16  10  77 W9        30.42R WCI   4
TRACY          CLEAR     17  11  80 W6        30.42R WCI   8
WINDOM         CLEAR     14  10  85 W7        30.41R WCI   4
WORTHINGTON    CLEAR     27   9  46 NW9       30.43R WCI  17
$$

IAZ001>003-012>014-020>022-031-032-NEZ013-014-SDZ071-020600-
NORTHWEST IOWA

CITY           SKY/WX    TMP DP  RH WIND       PRES   REMARKS
CHEROKEE       CLEAR     20  14  78 NW6       30.45R WCI  13
DENISON        CLEAR     16  12  86 SE3       30.45R
ESTHERVILLE    CLEAR     13  10  88 W9        30.42R WCI   1
LE MARS        CLEAR     16  12  86 CALM      30.46R
ORANGE CITY    CLEAR     21  16  79 N8        30.42S WCI  12
SHELDON        CLEAR     12   9  85 NW6       30.42S WCI   3
SIOUX CITY     CLEAR     21  13  71 N3        30.46R
SPENCER        CLEAR     12   8  84 NW8       30.43R WCI   0
STORM LAKE     CLEAR     16  12  86 NW9       30.44R WCI   4
$$

ABBREVIATIONS USED IN REMARKS
   TC - TEMPERATURE IN CELSIUS
  WCI - WIND CHILL INDEX
   HX - HEAT INDEX
  VSB - VISIBILITY



USA.gov is the U.S. government's official web portal to all federal, state and local government web resources and services.